Location: Newark
(47.5833°N, 8.1500°E)
Time: 06:26:51
(UTC+00:00)

Tiros 1 despin weight - Pass Details

Date: 28 October 2020
Orbit: 593 x 642 km, 48.2° (Epoch: 30 November)

Event Time Altitude Azimuth Distance (km) Brightness Sun altitude
Exits shadow 05:15:29 12° 276° (W) 1,807 ? -9.0°
Maximum altitude 05:19:15 39° 210° (SSW) 896 ? -8.4°
Drops below altitude 10° 05:23:21 10° 141° (SE) 1,920 ? -7.7°
Sets 05:25:44 0° 134° (SE) 2,822 ? -7.3°
